Location: Corte Madera
(37.9256°N, 122.5275°W)
Time: 11:43:15
(UTC+00:00)

Daily predictions for brighter satellites

Satellite Brightness Start Highest point End
(mag) Time Altitude Azimuth Time Altitude Azimuth Time Altitude Azimuth
Cosmos 2360 Rocket 4.2 12:05:02 16° NNE 12:07:54 23° NE 12:12:20 10° ESE
Cosmos 2100 Rocket 4.4 12:03:50 10° S 12:09:52 58° E 12:15:53 10° NNE
SL-16 R/B 2.5 12:17:15 62° E 12:17:15 62° E 12:22:34 10° SSE
Cosmos 2322 Rocket 2.6 12:21:32 56° NE 12:22:08 59° ENE 12:27:44 10° SE
CZ-2C R/B 4.2 12:21:42 10° NNE 12:23:16 21° NNE 12:23:16 21° NNE
Cosmos 1802 Rocket 4.3 12:26:37 10° S 12:32:58 69° E 12:39:20 10° NNE
ATLAS 2AS CENTAUR R/B 2.8 12:30:47 43° NNW 12:33:30 77° ENE 12:40:24 10° SE
Cosmos 2173 Rocket 3.9 12:28:50 10° S 12:35:06 87° E 12:41:17 10° N
Delta 2 Rocket 4.2 12:39:01 48° ESE 12:39:01 48° ESE 12:42:35 10° E
ASTEX 1 4.4 12:33:06 10° S 12:36:04 37° S 12:36:04 37° S
Cosmos 1408 Rocket 4.3 12:37:14 10° S 12:42:40 44° NNE 12:45:48 10° NNE
Lacrosse 5 rocket 3.8 12:43:33 11° NNE 12:43:39 11° NNE 12:44:55 10° NE
Cosmos 1125 Rocket 4.0 12:41:15 10° S 12:46:25 59° ESE 12:51:36 10° NNE
Cosmos 372 Rocket 4.2 12:50:27 53° NNW 12:50:27 53° NNW 12:54:32 10° NNE
Cosmos 1484 Rocket 4.0 12:49:29 10° NNE 12:53:20 44° E 12:57:09 10° S
BREEZE-M DEB (TANK) 4.0 12:55:56 19° ESE 12:55:56 19° ESE 12:56:47 10° ESE
Meteor PRIRODA 4.0 12:53:08 10° NNE 12:56:46 62° ESE 13:00:20 10° S
Cosmos 2061 Rocket 3.9 12:50:35 10° S 12:56:49 88° W 13:03:03 10° N
Cosmos 2150 Rocket 4.1 12:58:59 55° WNW 12:58:59 55° WNW 13:04:05 10° N
SL-4 R/B 2.3 13:05:10 58° WNW 13:06:06 85° SW 13:10:55 10° SE
ATLAS CENTAUR R/B 3.5 13:09:30 18° N 13:09:30 18° N 13:11:10 10° N
Cosmos 2333 Rocket 4.1 13:05:23 10° N 13:10:11 26° ENE 13:14:58 10° ESE
ALOS 3.5 13:07:10 10° NNE 13:11:38 43° E 13:16:04 10° S
CZ-3B R/B 3.3 13:07:33 20° SW 13:11:38 31° S 13:16:11 10° SE
Cosmos 1459 Rocket 4.1 13:05:56 10° SSW 13:11:52 47° WNW 13:17:56 10° N
COSMO-SKYMED 1 3.1 13:11:40 10° SSE 13:15:55 59° ENE 13:20:11 10° N
OAO 3 Rocket 4.4 13:15:41 26° SW 13:16:40 28° SSW 13:20:46 10° SE
COBE Rocket 3.8 13:11:36 10° S 13:16:42 73° W 13:21:44 10° NNW
Cosmos 1400 Rocket 3.7 13:18:52 10° N 13:22:47 49° ENE 13:26:37 10° SSE
Cosmos 1238 Rocket 4.0 13:20:48 10° S 13:27:19 81° E 13:33:06 10° N
Cosmos 972 Rocket 4.0 13:22:33 10° SSW 13:27:38 86° WNW 13:33:16 10° NNE
Cosmos 2016 Rocket 4.1 13:22:16 10° SSW 13:28:20 52° W 13:34:32 10° N
Cosmos 1725 Rocket 3.9 13:23:42 10° SSW 13:29:54 64° W 13:36:11 10° N
Cosmos 1048 Rocket 4.0 13:28:59 12° NNW 13:33:54 69° WSW 13:39:08 10° S
Cosmos 1151 Rocket 3.6 13:36:30 24° NW 13:38:23 35° W 13:42:19 10° SSW
SKYMED 3 4.5 13:35:41 10° S 13:39:59 72° WSW 13:44:21 10° NNW
FALCON 9 DEB 4.1 13:38:17 10° SSW 13:40:26 31° SE 13:42:39 10° ENE
COSMOS 2455 3.9 13:40:50 21° W 13:41:56 22° WSW 13:46:26 10° SSW
PAYLOAD B 4.1 13:38:10 10° NNE 13:43:41 84° WNW 13:49:11 10° SSW
CZ-4B DEB 4.1 13:38:29 10° N 13:43:57 74° WNW 13:49:25 10° SSW
STARLINK-67 4.0 13:44:13 22° SW 13:44:13 22° SW 13:46:13 10° S
NOSS 3-4 (A) 4.1 13:38:52 16° NW 13:44:34 52° WSW 13:52:07 10° S
NOSS 3-4 (C) 4.1 13:38:56 16° NW 13:44:41 53° WSW 13:52:14 10° S
Starlink Launch 2 leader 3.6 13:43:39 10° SSW 13:45:59 40° SE 13:48:19 10° ENE
PSLV R/B 4.4 13:43:59 10° N 13:47:36 35° WNW 13:51:16 10° SW
MOS 1-B 4.3 13:42:13 10° N 13:47:55 60° WNW 13:53:34 10° SSW
Helios 1A Rocket 2.9 13:44:41 10° NNE 13:48:47 89° ESE 13:52:49 10° SSW
FALCON 9 DEB 3.4 13:46:57 10° SSW 13:49:15 43° SE 13:51:34 10° ENE
Starlink Launch 2 trailer 3.3 13:47:17 10° SSW 13:49:39 45° SE 13:52:01 10° ENE
STARLINK 1050 3.7 13:47:17 10° SSW 13:50:01 45° SE 13:52:44 10° ENE
Cosmos 2237 4.4 13:45:21 10° NNW 13:50:51 53° WSW 13:56:21 10° S
STARLINK 1055 3.7 13:48:23 10° SSW 13:51:07 46° SE 13:53:52 10° ENE
Cosmos 2360 Rocket 2.4 13:46:52 11° NW 13:52:08 49° WSW 13:57:33 10° S
FALCON 9 DEB 3.2 13:49:47 10° SSW 13:52:08 48° SE 13:54:30 10° ENE
STARLINK 1022 3.6 13:49:29 10° SSW 13:52:12 48° SE 13:54:58 10° ENE
Meteor 1-26 Rocket 4.1 13:47:12 10° NNW 13:52:49 78° W 13:58:17 10° S
STARLINK 1042 3.5 13:50:18 10° SSW 13:53:03 49° SE 13:55:49 10° ENE
Cosmos 1825 4.2 13:56:14 12° NW 13:56:14 12° NW 13:56:48 10° NNW
STARLINK 1056 3.5 13:51:31 10° SSW 13:54:17 51° SE 13:57:03 10° ENE
Cosmos 1818 3.5 13:48:59 10° SSW 13:54:25 86° WNW 13:59:55 10° NNE
STARLINK 1054 3.4 13:52:44 10° SSW 13:55:30 53° SE 13:58:17 10° ENE
Cosmos 1606 3.0 13:52:43 10° NNW 13:56:21 43° W 13:59:59 10° SSW
STARLINK 1062 3.3 13:53:38 10° SW 13:56:24 55° SE 13:59:12 10° NE
STARLINK 1053 3.2 13:55:15 10° SW 13:58:02 58° SE 14:00:51 10° NE
STARLINK 1061 3.2 13:55:51 10° SW 13:58:39 59° SE 14:01:29 10° NE
Cosmos 2237 Rocket 4.3 13:54:34 10° N 13:59:05 24° NE 14:03:34 10° ESE
STARLINK 1067 3.1 13:57:06 10° SW 13:59:53 62° SE 14:02:42 10° NE
SL-16 R/B 3.7 13:59:12 15° W 14:00:27 16° W 14:03:44 10° SW
Cosmos 972 4.4 13:55:39 10° SSW 14:00:34 85° WNW 14:05:54 10° NNE
STARLINK 1058 3.0 13:58:07 10° SW 14:00:56 64° SE 14:03:46 10° NE
GPS 2-05 Rocket1 3.6 13:59:03 11° SW 14:01:20 32° SSE 14:03:45 10° E
METEOR-M 4.1 13:56:10 10° N 14:01:25 60° WNW 14:06:39 10° SSW
STARLINK 1043 3.0 13:59:15 10° SW 14:02:04 67° SE 14:04:55 10° NE
COSMOS 2428 3.2 13:56:38 10° NNW 14:02:19 65° ENE 14:08:00 10° SSE
STARLINK-46 2.7 14:00:10 17° NW 14:02:19 79° NE 14:05:17 10° SE
STARLINK 1065 2.9 14:00:17 10° SW 14:03:05 69° SE 14:05:56 10° NE
CZ-2C R/B 4.2 14:02:08 10° NW 14:02:38 11° NW 14:02:38 11° NW
SKYMED 2 4.1 14:00:05 10° SSW 14:04:06 37° W 14:08:08 10° NNW
STARLINK 1063 2.8 14:01:40 10° SW 14:04:29 72° SE 14:07:20 10° NE
Cosmos 1515 Rocket 4.4 14:01:02 10° NNW 14:04:42 27° W 14:08:22 10° SSW
Cosmos 1805 Rocket 3.4 14:00:30 10° S 14:04:49 77° W 14:09:09 10° N
STARLINK 1027 2.8 14:02:11 10° SW 14:05:02 73° SE 14:07:54 10° NE
STARLINK 1028 2.8 14:02:24 10° SW 14:05:15 74° SE 14:08:07 10° NE
STARLINK 1064 2.8 14:02:35 10° SW 14:05:25 74° SE 14:08:16 10° NE
STARLINK 1021 2.8 14:02:35 10° SW 14:05:26 74° SE 14:08:18 10° NE
Cosmos 2322 Rocket 3.6 14:03:26 14° WNW 14:05:36 17° W 14:09:09 10° SW
Tsikada Rocket 4.3 13:59:37 10° NNW 14:05:37 46° W 14:11:32 10° SSW
STARLINK 1019 2.8 14:02:48 10° SW 14:05:39 75° SE 14:08:32 10° NE
STARLINK 1012 2.8 14:03:00 10° SW 14:05:52 75° SE 14:08:44 10° NE
STARLINK 1010 2.8 14:03:13 10° SW 14:06:04 76° SE 14:08:56 10° NE
Cosmos 1743 Rocket 4.4 14:02:32 10° SW 14:06:12 27° WNW 14:09:53 10° NNW
STARLINK 1026 2.8 14:03:27 10° SW 14:06:17 76° SE 14:09:10 10° NE
Cosmos 494 Rocket 4.0 14:01:12 10° NNW 14:06:23 64° WSW 14:11:30 10° S
STARLINK 1013 2.8 14:03:38 10° SW 14:06:30 77° SE 14:09:23 10° NE
STARLINK 1034 2.7 14:03:42 10° SW 14:06:30 77° SE 14:09:19 10° NE
STARLINK 1041 2.7 14:03:43 10° SW 14:06:34 77° SE 14:09:25 10° NE
STARLINK 1009 2.8 14:03:50 10° SW 14:06:41 77° SE 14:09:34 10° NE
STARLINK 1015 2.7 14:04:02 10° SW 14:06:54 78° SE 14:09:46 10° NE
STARLINK 1016 2.7 14:04:15 10° SW 14:07:06 78° SE 14:09:59 10° NE
Okean O Rocket 1.6 14:02:56 10° N 14:07:12 56° WNW 14:11:26 10° SSW
STARLINK 1008 2.7 14:04:27 10° SW 14:07:19 79° SE 14:10:12 10° NE
STARLINK 1014 2.7 14:04:38 10° SW 14:07:30 79° SE 14:10:23 10° NE
STARLINK 1025 2.7 14:04:51 10° SW 14:07:43 80° SE 14:10:35 10° NE
STARLINK 1038 2.7 14:04:54 10° SW 14:07:45 80° SE 14:10:36 10° NE
STARLINK 1045 2.7 14:04:57 10° SW 14:07:47 80° SE 14:10:40 10° NE
STARLINK 1017 2.7 14:05:05 10° SW 14:07:56 80° SE 14:10:49 10° NE
STARLINK 1023 2.7 14:05:16 10° SW 14:08:08 81° SE 14:11:01 10° NE
STARLINK 1007 2.7 14:05:29 10° SW 14:08:21 81° SE 14:11:14 10° NE
STARLINK 1048 2.7 14:05:42 10° SW 14:08:34 82° SE 14:11:27 10° NE
STARLINK 1049 2.7 14:05:50 10° SW 14:08:43 82° SE 14:11:35 10° NE
STARLINK 1046 2.7 14:06:03 10° SW 14:08:55 83° SE 14:11:46 10° NE
STARLINK 1051 2.7 14:06:03 10° SW 14:08:56 83° SE 14:11:49 10° NE
Cosmos 2228 Rocket 3.6 14:04:41 10° NNW 14:09:00 41° W 14:13:16 10° SSW
STARLINK 1068 2.7 14:06:10 10° SW 14:09:03 83° SE 14:11:55 10° NE
STARLINK 1037 2.7 14:06:17 10° SW 14:09:09 83° SE 14:12:02 10° NE
STARLINK 1059 2.7 14:06:30 10° SW 14:09:22 84° SE 14:12:15 10° NE
STARLINK 1057 2.6 14:06:43 10° SW 14:09:35 84° SE 14:12:28 10° NE
STARLINK 1052 2.6 14:06:57 10° SW 14:09:49 85° SE 14:12:42 10° NE
SJ-7 4.3 14:05:51 10° N 14:09:59 83° WNW 14:14:02 10° SSW
STARLINK 1039 2.6 14:07:13 10° SW 14:10:05 85° SE 14:12:56 10° NE
STARLINK 1029 2.6 14:07:20 10° SW 14:10:12 86° SE 14:13:05 10° NE
STARLINK 1060 2.6 14:07:29 10° SW 14:10:22 86° SE 14:13:15 10° NE
STARLINK 1030 2.6 14:07:44 10° SW 14:10:37 87° SE 14:13:31 10° NE
STARLINK 1020 2.6 14:07:56 10° SW 14:10:49 87° SE 14:13:42 10° NE
STARLINK 1033 2.6 14:08:35 10° SW 14:11:28 89° SSE 14:14:21 10° NE
STARLINK 1031 2.6 14:08:49 10° SW 14:11:41 89° S 14:14:35 10° NE
STARLINK 1024 2.6 14:09:01 10° SW 14:11:54 90° NE 14:14:48 10° NE
STARLINK 1047 2.6 14:09:03 10° SW 14:11:54 89° NNE 14:14:46 10° NE
STARLINK 1035 2.6 14:09:11 10° SW 14:12:04 90° WNW 14:14:58 10° NE
STARLINK 1036 2.6 14:09:21 10° SW 14:12:12 89° WNW 14:15:05 10° NE
STARLINK 1032 2.6 14:09:23 10° SW 14:12:15 89° WNW 14:15:09 10° NE
STARLINK 1011 2.6 14:09:38 10° SW 14:12:31 89° NW 14:15:25 10° NE
FENGYUN 3A 3.9 14:12:04 10° N 14:17:12 45° WNW 14:22:18 10° SW
ADEOS Rocket 4.5 14:11:07 10° SE 14:18:28 50° ENE 14:25:25 10° N
RESURS DK-1 3.6 14:15:02 10° N 14:18:59 42° ENE 14:22:54 10° SE
Delta 2 Rocket 4.2 14:16:06 10° W 14:20:21 51° SSW 14:25:11 10° ESE
Cosmos 1633 2.5 14:17:50 10° S 14:21:27 82° W 14:25:06 10° N
Lacrosse 5 rocket 1.0 14:19:43 10° NW 14:23:19 83° NE 14:26:55 10° SE
ATLAS 2AS CENTAUR R/B 4.1 14:18:42 10° WNW 14:23:28 19° WSW 14:28:00 10° SSW
Cosmos 1269 Rocket 4.2 14:18:31 10° NNW 14:23:39 53° WSW 14:28:46 10° S
Cosmos 1315 Rocket 2.8 14:24:41 10° NNW 14:28:44 69° W 14:32:48 10° S
Cosmos 1633 Rocket 3.2 14:24:40 10° S 14:28:59 81° E 14:33:22 10° N
Sich 1 3.1 14:25:49 10° SSW 14:29:59 55° W 14:34:12 10° N
